Breeders Fall Classic - PARTIAL - NOT COMPLETE ! INVENTORY

Station: INVENTORY - T Race

Distance: 10 Miles    

Release: 09-Jul-2019 09:00

Weather Release:    Arrival:

Wind at Release:     Wind at Arrival:

Temp at Release: °    Temp at Arrival: °

Lofts: 111

Birds: 517

Clocked: 457

Good Luck to Everyone!
Drops Pos Breeder Pigeon Name Color Sex Ent Arrival Speed To Win Eligible RedGriz
1 M D C Loft - OR 1059-AU19-MDC BC H 1 11:32:20.10 115.535 00:00:00 Yes
2 Notch-Cutter/Karges/Silvio - TX 0023-AU19-USA BB H 1 11:44:01.80 107.297 00:11:42 Yes
3 Notch-Cutter/Karges/Silvio - TX 0024-AU19-USA BCPD H 2 11:48:10.50 104.653 00:15:50 Yes
4 98 M J - PA 0034-AU19-AJLF BC H 1 12:25:21.30 85.705 00:53:01 Yes
5 M D C Loft - OR 1050-AU19-MDC BB H 2 12:28:35.70 84.374 00:56:16 Yes
6 Iditarod Loft - MT 17267-AU19-AA BB H 1 12:29:25.10 84.042 00:57:05 Yes
7 David Martinez - NY 0419-IF19-FVC BBWF H 1 12:29:48.10 83.889 00:57:28 Yes
8 Emmalyn & Carelyn Loft - CA 0036-AU19-CEYX BC H 1 12:31:44.20 83.122 00:59:24 Yes
9 Linda Loft - PA 6085-IF19-GPC BB H 1 12:34:12.70 82.162 01:01:53 Yes
10 Sunshine Loft 2 - SC 0123-AU19-PAK Silk - Islamabad BBPN C 1 12:34:32.90 82.033 01:02:13 Yes
11 T C R Loft - NC 15406-AU19-AA BB H 1 12:35:04.20 81.834 01:02:44 Yes
12 Youngblood Loft - UT 0331-AU19-UCA 131 New Piet BB H 1 12:35:59.00 81.488 01:03:39 Yes
13 Irishsyndicatelofts - AZ 0498-IF19-IRIS BBSP H 1 12:43:57.90 78.584 01:11:38 Yes
14 Lazy A C Loft - IN 0449-AU19-LAZY BC H 1 12:45:28.50 78.057 01:13:08 Yes
15 Kui's Loft - NY 3004-AU19-JEDD BC H 1 12:46:00.50 77.873 01:13:40 Yes
16 Kui's Loft - NY 3007-AU19-JEDD BB H 2 12:47:26.10 77.385 01:15:06 Yes
17 Irishsyndicatelofts - AZ 0712-IF19-IRIS BBPW H 2 12:48:00.10 77.192 01:15:40 Yes
18 Irishsyndicatelofts - AZ 0710-IF19-IRIS BC H 3 12:48:32.40 77.011 01:16:12 Yes
19 Notch-Cutter/Karges/Silvio - TX 0022-AU19-USA BC H 3 12:50:29.70 76.357 01:18:10 Yes
20 Elton Dinga - TX 16141-AU19-AA Klaas 1008 x Klaas 303 BB H 1 12:51:44.70 75.946 01:19:25 Yes
21 Andy Owen - GA 1055-AU19-CGA BB H 1 12:51:58.00 75.873 01:19:38 Yes
22 Dan & Greg Coury - AZ 0324-AU19-AONE frgttn sister+6065375 BBWF H 1 12:57:43.50 74.035 01:25:23 Yes
23 Emc Loft - NC 0235-IF19-TRC BB 0 1 12:59:33.20 73.470 01:27:13 Yes
24 Silicon Valley Syndicates - CA 19114-AU19-SVS BB H 1 13:00:54.70 73.056 01:28:35 Yes
25 Los Cubanitos Loft 2 - GA 0118-AU19-JEDD BBPW H 1 13:01:52.80 72.763 01:29:33 Yes
26 Shi Loft - PA 7033-IF19-ERIE BC H 1 13:02:28.30 72.586 01:30:08 Yes
27 Lindbergh Flyers - MO 9535-AU19-NERP BC H 1 13:02:48.40 72.486 01:30:28 Yes
28 Lazy A C Loft - IN 0451-AU19-LAZY BC H 2 13:03:19.90 72.329 01:31:00 Yes
29 Lazy A C Loft - IN 0455-AU19-LAZY BB H 3 13:03:45.70 72.202 01:31:26 Yes
30 Nemelka Racing Pigeon Loft - UT 9004-AU19-NRPL Ronin BC C 1 13:06:20.40 71.446 01:34:00 Yes
31 Youngblood Loft - UT 0335-AU19-UCA #1 Splash BBWF H 2 13:07:37.10 71.077 01:35:17 Yes
32 Lone Oak Loft - TX 0116-AU19-LOL PK-S.Kiara-4 BB H 1 13:16:23.70 68.644 01:44:04 Yes
33 M D C Loft - OR 1068-AU19-MDC DC H 3 13:17:02.00 68.474 01:44:42 Yes
34 Chen Loft - PA 0686-IF19-LU TFC1048/ LU269 BB H 1 13:18:31.60 68.078 01:46:12 Yes
35 Dons Loft - SC 2157-AU19-VITA BBWF H 1 13:19:11.40 67.904 01:46:51 Yes
36 John Fukumoto - HI 0733-AU19-HAWN BBWF H 1 13:20:57.80 67.442 01:48:38 Yes
37 Abilene Loft - OH 1220-AU19-MVS BB H 1 13:28:55.00 65.448 01:56:35 Yes
38 Ludo Loft - NY 0935-IF19-LUDO Ekez RED H 1 13:29:04.70 65.408 01:56:45 Yes
39 King Conch Loft - ON 0119-CU19-KING BC H 1 13:29:36.80 65.279 01:57:17 Yes
40 Abilene Loft - OH 1215-AU19-MVS SLCK H 2 13:29:56.40 65.200 01:57:36 Yes
41 Mike Hines - SD 9168-AU19-GPF BB H 1 13:30:06.00 65.161 01:57:46 Yes
42 Bushmaster & Nieves Loft - PR 4013-AU19-ARPU Cojeme si puedes BBWF H 1 13:32:03.10 64.694 01:59:43 Yes
43 Iditarod Loft - MT 17270-AU19-AA BB H 2 13:35:04.00 63.984 02:02:44 Yes
44 E & E Loft - WA 0528-AU19-SKI BBWF H 1 13:35:15.00 63.942 02:02:55 Yes
45 Lazy A C Loft - IN 0427-AU19-LAZY BB H 4 13:37:12.30 63.491 02:04:52 Yes
46 Genesis Syndicate Loft - AZ 0738-AU19-GENS BBSP H 1 13:38:22.50 63.224 02:06:02 Yes
47 Do Drop In Loft - NC 0042-IF19-TRC Freak SLWF H 1 13:38:23.30 63.221 02:06:03 Yes
48 Irishsyndicatelofts - AZ 0500-IF19-IRIS SILV H 4 13:38:24.40 63.217 02:06:04 Yes
49 Si Se Puede Loft - TX 1915-AU19-SISE BBSP H 1 13:38:25.10 63.214 02:06:05 Yes
50 Lindbergh Flyers - MO 9575-AU19-NERP BB H 2 13:38:25.60 63.212 02:06:06 Yes
51 98 M J - PA 0037-AU19-AJLF GRIZ H 2 13:38:26.10 63.210 02:06:06 Yes
52 Crescendo Loft - NM 4730-AU19-VITA BB H 1 13:38:26.60 63.209 02:06:06 Yes
53 Nanez Family Lofts - WI 9288-AU19-NANZ BB H 1 13:38:27.40 63.206 02:06:07 Yes
54 Big Andy And Mike Cortes - FL 13766-AU19-GHC BBWF H 1 13:38:27.90 63.204 02:06:08 Yes
55 Nanez Family Lofts - WI 50644-IF19-R BB H 2 13:38:28.40 63.202 02:06:08 Yes
56 Abilene Loft - OH 1235-AU19-MVS BB H 3 13:38:29.00 63.199 02:06:09 Yes
56 Milo’s Loft - OK 22932-AU19-ARPU Casaert/sablon BB H 1 13:38:29.00 63.199 02:06:09 Yes
58 Columba Loft - GA 9113-AU19-LYCH BC H 1 13:38:29.60 63.197 02:06:10 Yes
58 Crazy Als Lofts - CO 5610-AU19-CRAZ BCPD H 1 13:38:29.60 63.197 02:06:10 Yes
60 Da-Dong - WI 1719-AU19-RAC 8057-2782 BB H 1 13:38:30.80 63.193 02:06:11 Yes
61 Kai Loft - PA 1024-IF19-KAI BBPW H 1 13:38:31.60 63.190 02:06:11 Yes
62 Silicon Valley Syndicates - CA 19111-AU19-SVS BB H 2 13:38:32.70 63.185 02:06:13 Yes
63 S & P Loft - MI 13904-AU19-AA BBSP H 1 13:38:33.80 63.181 02:06:14 Yes
64 Rodney Morris - ON 0104-CU19-KING BC H 1 13:38:34.90 63.177 02:06:15 Yes
65 Abilene Loft - OH 1302-AU19-MVS BBPW H 4 13:38:36.10 63.173 02:06:16 Yes
66 Holts Loft - NC 0122-AU19-THR BB H 1 13:38:36.90 63.170 02:06:17 Yes
67 Rodney Morris - ON 19184-CU19-CRPU GRIZ H 2 13:38:37.70 63.167 02:06:18 Yes
68 Bushmaster & Nieves Loft - PR 4021-AU19-ARPU Te mataste tu mismo BBPW H 2 13:38:38.00 63.165 02:06:18 Yes
69 Big Andy And Mike Cortes - FL 13760-AU19-GHC BB H 2 13:38:38.40 63.164 02:06:18 Yes
69 Salvicon - AZ 1071-IF19-FCON BC H 1 13:38:38.50 63.164 02:06:18 Yes
71 Kolvenbag & Son - PA 1319-IF19-KOLV BB H 1 13:38:39.10 63.161 02:06:19 Yes
71 Thunder Birds/Rodriguez Breeding Loft - TX 19052-AU19-WIN Puss In Boots! BC H 1 13:38:39.20 63.161 02:06:19 Yes
71 Goshentown Lofts - TN 7640-AU19-NASH BB H 1 13:38:39.20 63.161 02:06:19 Yes
74 Abilene Loft - OH 0834-AU19-NSC BB H 5 13:38:39.50 63.160 02:06:19 Yes
75 Kastle Loft - KY 24192-AU19-ARPU Kill Me OPAL H 1 13:38:39.90 63.158 02:06:20 Yes
75 Marengo Creek Farms - AL 3394-AU19-MCF BBPW H 1 13:38:39.90 63.158 02:06:20 Yes
75 Era Loft - NY 0620-AU19-BUF BC H 1 13:38:39.90 63.158 02:06:20 Yes
78 Cross Creek Loft Of Nc - NC 9510-AU19-MAC CHSP H 1 13:38:40.30 63.157 02:06:20 Yes
79 Baldwin & Tilson - NC 9236-AU19-TENT 1066-52 BC H 1 13:38:40.70 63.155 02:06:21 Yes
80 Andy Owen - GA 1053-AU19-CGA BBPW H 2 13:38:41.20 63.153 02:06:21 Yes
80 Q-Ba Family Loft - TX 0840-AU19-SANZ BCWF 0 1 13:38:41.20 63.153 02:06:21 Yes
82 Salvicon - AZ 1073-IF19-FCON BC H 2 13:38:41.50 63.152 02:06:21 Yes
83 Q-Ba Family Loft - TX 0839-AU19-SANZ BC 0 2 13:38:42.20 63.150 02:06:22 Yes
83 John Fukumoto - HI 0722-AU19-HAWN BB H 2 13:38:42.20 63.150 02:06:22 Yes
85 De La O/Sino/Baro - CA 9093-AU19-COOK BC H 1 13:38:42.50 63.148 02:06:23 Yes
86 Mike's Loft - MS 12729-AU19-JEDD MERLOT RRWF H 1 13:38:43.00 63.147 02:06:23 Yes
87 Cherokee Loft - MI 0510-AU19-CHEK BCWF H 1 13:38:43.50 63.145 02:06:23 Yes
87 Abilene Loft - OH 1301-AU19-MVS BBPW H 6 13:38:43.50 63.145 02:06:23 Yes
89 Baldwin & Tilson - NC 9290-AU19-TENT 4135-362 BB C 2 13:38:43.80 63.144 02:06:24 Yes
90 Bill Hermann - MO 1215-AU19-AA BB H 1 13:38:44.20 63.142 02:06:24 Yes
90 Lindbergh Flyers - MO 9571-AU19-NERP BCWF H 3 13:38:44.30 63.142 02:06:24 Yes
92 Double J Racing Loft - OH 0002-AU19-POUS DC H 1 13:38:45.20 63.138 02:06:25 Yes
92 Bill Hermann - MO 1221-AU19-AA BB H 2 13:38:45.20 63.138 02:06:25 Yes
94 Iditarod Loft - MT 17257-AU19-AA BB H 3 13:38:47.10 63.131 02:06:27 Yes
95 Da-Dong - WI 1611-AU19-RAC 836-836 WHGZ H 2 13:38:48.70 63.125 02:06:29 Yes
96 Big Andy And Mike Cortes - FL 6938-AU19-GHC DC H 3 13:38:52.50 63.111 02:06:32 Yes
97 Double J Racing Loft - OH 0004-AU19-POUS BB H 2 13:38:54.30 63.104 02:06:34 Yes
98 Holts Loft - NC 0104-AU19-THR DC H 2 13:38:54.80 63.102 02:06:35 Yes
99 Cloux Loft - CO 9733-AU19-FH OPAL H 1 13:38:55.60 63.099 02:06:36 Yes
99 Era Loft - NY 0625-AU19-BUF BC H 2 13:38:55.60 63.099 02:06:36 Yes

There are 516 bird records

Note: These Race Results are unofficial and subject to change until verified by the Race Committee and declared final.